Tracking 19177 objects as of 25-May-2018
HD Live streaming from Space Station
objects crossing your sky now

NOAA 16 DEB

Track NOAA 16 DEB now!
10-day predictions


NORAD ID: 41519
Int'l Code: 2000-055MT
Perigee: 841.2 km
Apogee: 858.7 km
Inclination: 98.9 °
Period: 101.8 minutes
Semi major axis: 7220 km
RCS: Unknown
Launch date: September 21, 2000
Source: United States (US)
Launch site: AIR FORCE WESTERN TEST RANGE (AFWTR)

Note: This is SATELLITE DEBRIS
aabbcc
Your satellite tracking list
Your tracking list is empty




NASA's NSSDC Master Catalog

Two Line Element Set (TLE):
1 41519U 00055MT  18144.38749797 +.00001410 +00000-0 +75271-3 0  9993
2 41519 098.8648 218.1022 0012143 323.8011 036.2339 14.14851494108422
Source of the keplerian elements: AFSPC